Home > Weather > Poznan > Past weeks

Flag for Poland Past Weather in Poznan, Poland — Yesterday and Last 2 Weeks

Now
66 °F

Clear.


Feels Like: 66 °F
Forecast: 58 / 76 °F
Wind: 2 mph from North

Location: Poznan Airport

Current Time: May 28, 2016 at 12:16:01 AM

Latest Report: May 27, 2016 at 11:30 PM


Visibility: 10 mi

Pressure: 30.01 "Hg

Humidity: 64%

Dew Point: 54 °F

Location of PoznanLocation

Past Weather in Poznan — Graph

°F

Poznan Temperature Yesterday

Maximum temperature yesterday: 75 °F (at 5:30 PM)
Minimum temperature yesterday: 54 °F (at 5:30 AM)
Average temperature yesterday: 65 °F

High & Low Weather Summary for the Past Weeks

 TemperatureHumidityPressure
High84 °F (May 23, 2:30 PM)94% (May 13, 4:00 AM)30.09 "Hg (May 13, 4:00 AM)
Low41 °F (May 16, 3:00 AM)25% (May 23, 2:30 PM)29.42 "Hg (May 13, 3:30 PM)
Average60 °F65%29.85 "Hg
* Reported May 12 11:00 PM — May 27 11:00 PM, Poznan, Weather by CustomWeather, © 2016

Note: Actual official high and low records may vary slightly from our data, if they occured in-between our weather recording intervals... More about our weather records

Advertising

Poznan Weather History for the Previous 24 Hours

Scroll right to see more
 ConditionsComfort  
Time TempWeatherWind HumidityBarometerVisibility
11:00 PM
Fri, May 27
64 °FClear.2 mph64%30.01 "Hg10 mi
10:30 PM66 °FClear.No wind64%30.01 "Hg10 mi
10:00 PM66 °FClear.3 mph68%30.01 "Hg10 mi
9:30 PM66 °FPassing clouds.2 mph64%30.01 "HgN/A
9:00 PM68 °FPassing clouds.2 mph49%30.01 "HgN/A
8:30 PM70 °FSunny.3 mph50%30.01 "Hg10 mi
8:00 PM70 °FSunny.3 mph50%30.01 "Hg10 mi
7:30 PM72 °FSunny.6 mph44%30.01 "Hg10 mi
7:00 PM72 °FPassing clouds.6 mph44%30.01 "HgN/A
6:30 PM73 °FSunny.6 mph41%29.98 "Hg10 mi
6:00 PM73 °FSunny.7 mph41%30.01 "Hg10 mi
5:30 PM75 °FPassing clouds.6 mph36%30.01 "HgN/A
5:00 PM73 °FPassing clouds.8 mph41%30.01 "HgN/A
4:30 PM73 °FPassing clouds.6 mph41%30.01 "HgN/A
4:00 PM73 °FPassing clouds.6 mph44%30.01 "HgN/A
3:30 PM73 °FScattered clouds.5 mph41%30.01 "HgN/A
3:00 PM73 °FScattered clouds.6 mph44%30.01 "HgN/A
2:30 PM72 °FScattered clouds.7 mph47%30.01 "HgN/A
2:00 PM72 °FScattered clouds.8 mph47%30.04 "HgN/A
1:30 PM72 °FScattered clouds.8 mph47%30.04 "HgN/A
1:00 PM70 °FPartly sunny.9 mph53%30.04 "HgN/A
12:30 PM70 °FScattered clouds.8 mph53%30.04 "HgN/A
12:00 PM70 °FPartly sunny.7 mph53%30.04 "HgN/A
11:30 AM70 °FPartly sunny.10 mph53%30.04 "HgN/A
11:00 AM68 °FPartly sunny.9 mph56%30.04 "HgN/A
10:30 AM68 °FPartly sunny.8 mph60%30.04 "HgN/A
10:00 AM66 °FScattered clouds.6 mph64%30.04 "HgN/A
9:30 AM66 °FPassing clouds.6 mph64%30.04 "HgN/A
9:00 AM64 °FPassing clouds.7 mph68%30.04 "HgN/A
8:30 AM63 °FClear.3 mph73%30.04 "Hg5 mi
8:00 AM61 °FClear.6 mph83%30.04 "Hg4 mi
7:30 AM59 °FClear.3 mph88%30.04 "Hg4 mi
7:00 AM59 °FFog.2 mph88%30.04 "Hg2 mi
6:30 AM57 °FFog.1 mph88%30.04 "Hg1 mi
6:00 AM54 °FFog.1 mph88%30.04 "Hg1 mi
5:30 AM54 °FFog.1 mph88%30.04 "Hg1 mi
5:00 AM55 °FFog.2 mph94%30.04 "Hg1 mi
4:30 AM55 °FFog.2 mph94%30.04 "Hg2 mi
4:00 AM57 °FPassing clouds.2 mph88%30.01 "Hg4 mi
3:30 AM57 °FPassing clouds.5 mph94%30.01 "HgN/A
3:00 AM59 °FPassing clouds.5 mph88%30.04 "HgN/A
2:30 AM59 °FPassing clouds.3 mph88%30.04 "HgN/A
2:00 AM59 °FPassing clouds.2 mph88%30.04 "HgN/A
1:30 AM59 °FPassing clouds.1 mph88%30.04 "HgN/A
1:00 AM59 °FPassing clouds.1 mph88%30.04 "HgN/A
12:30 AM59 °FPartly cloudy.2 mph88%30.04 "HgN/A
12:00 AM59 °FPassing clouds.2 mph88%30.04 "HgN/A
Weather by CustomWeather, © 2016

See weather overviewHow to use our weather pages